CYGFM02
Last updated on Sun Jun 21 2026 00:02:47 GMT+0000 (Coordinated Universal Time)
1 41886U 16078C 26171.40489205 .00028987 00000+0 28782-3 0 9991
2 41886 34.9392 201.2489 0008091 224.9077 135.0995 15.64678561529674
Next 0 passes for location: London (51.5072 / 0.1276)
No passes found over London.